Nouasseur, Morocco

3:08 AM WET on February 14, 2016 (GMT +0000)
Mohamed V

Weather History for GMMN - October, 2013

Change the Weather History Date:

Thursday, October 3, 2013

  Actual Average Record
Temperature  
Mean Temperature 72 °F -  
Max Temperature 81 °F 75 °F - (-1)
Min Temperature 63 °F 56 °F - (-1)
Cooling Degree Days 7    
Growing Degree Days 22 (Base 50)    
Moisture  
Dew Point 66 °F    
Average Humidity 77    
Maximum Humidity 88    
Minimum Humidity 55    
Precipitation  
Precipitation 0.00 in - - ()
Sea Level Pressure  
Sea Level Pressure 29.93 in    
Wind  
Wind Speed 5 mph ()    
Max Wind Speed 13 mph    
Max Gust Speed -    
Visibility 6.2 miles    
Events      
Averages and records for this station are not official NWS values.
T = Trace of Precipitation, MM = Missing Value Source: Averaged Metar Reports

Daily Weather History Graph

Daily Weather History Graph

Search for Another Location

Airport or City:

Trip Planner

Search our weather history database for the weather conditions in past years. The results will help you decide how hot, cold, wet, or windy it might be!

Date:

Astronomy

Oct. 03, 2013 Rise Set
Actual Time 7:26 AM WEST 7:12 PM WEST
Civil Twilight 7:01 AM WEST 7:36 PM WEST
Nautical Twilight 6:32 AM WEST 8:05 PM WEST
Astronomical Twilight 6:03 AM WEST 8:34 PM WEST
Moon 5:49 AM WEST (10/3) 6:11 PM WEST (10/3)
Length of Visible Light 12h 35m
Length of Day
11h 46m
Waning Crescent, 3% of the Moon is Illuminated
Oct 3
Waning Crescent
Oct 5
New
Oct 12
First Quarter
Oct 19
Full
Oct 27
Last Quarter

Hourly Weather History & Observations

Time (WEST) Temp. Heat Index Dew Point Humidity Pressure Visibility Wind Dir Wind Speed Gust Speed Precip Events Conditions
12:00 AM 69.8 °F - 64.4 °F 83% 29.92 in 6.2 mi WNW 1.2 mph - N/A   Scattered Clouds
12:30 AM 68.0 °F - 62.6 °F 83% 29.92 in 6.2 mi Calm Calm - N/A   Scattered Clouds
1:00 AM 68 °F - 64 °F 82% 29.91 in 6 mi WNW 2.3 mph - -   Partly Cloudy
1:00 AM 68.0 °F - 64.4 °F 88% 29.92 in 6.2 mi WNW 2.3 mph - N/A   Scattered Clouds
2:00 AM 68.0 °F - 62.6 °F 83% 29.92 in 6.2 mi SW 4.6 mph - N/A   Scattered Clouds
2:30 AM 68.0 °F - 64.4 °F 88% 29.92 in 6.2 mi SW 2.3 mph - N/A   Scattered Clouds
3:00 AM 69.8 °F - 64.4 °F 83% 29.92 in 6.2 mi SSW 3.5 mph - N/A   Scattered Clouds
3:30 AM 69.8 °F - 64.4 °F 83% 29.89 in 6.2 mi South 3.5 mph - N/A   Scattered Clouds
4:00 AM 69 °F - 64 °F 80% 29.88 in 6 mi South 3.5 mph - -   Partly Cloudy
4:00 AM 69.8 °F - 64.4 °F 83% 29.89 in 6.2 mi South 3.5 mph - N/A   Scattered Clouds
4:30 AM 68.0 °F - 62.6 °F 83% 29.89 in 6.2 mi South 3.5 mph - N/A   Unknown
5:00 AM 68.0 °F - 62.6 °F 83% 29.89 in 6.2 mi South 3.5 mph - N/A   Scattered Clouds
5:30 AM 66.2 °F - 62.6 °F 88% 29.89 in 6.2 mi South 4.6 mph - N/A   Scattered Clouds
6:00 AM 66.2 °F - 62.6 °F 88% 29.89 in 6.2 mi South 3.5 mph - N/A   Scattered Clouds
6:30 AM 66.2 °F - 62.6 °F 88% 29.89 in 6.2 mi South 3.5 mph - N/A   Unknown
7:00 AM 67 °F - 63 °F 83% 29.90 in 6 mi South 2.3 mph - -   Partly Cloudy
7:00 AM 68.0 °F - 62.6 °F 83% 29.89 in 6.2 mi South 2.3 mph - N/A   Scattered Clouds
7:30 AM 68.0 °F - 64.4 °F 88% 29.92 in 6.2 mi South 3.5 mph - N/A   Scattered Clouds
8:00 AM 68.0 °F - 64.4 °F 88% 29.92 in 6.2 mi South 3.5 mph - N/A   Scattered Clouds
8:30 AM 69.8 °F - 66.2 °F 88% 29.92 in 6.2 mi South 3.5 mph - N/A   Scattered Clouds
9:00 AM 73.4 °F - 66.2 °F 78% 29.92 in 6.2 mi SSW 6.9 mph - N/A   Scattered Clouds
9:30 AM 73.4 °F - 66.2 °F 78% 29.95 in 6.2 mi SW 5.8 mph - N/A   Scattered Clouds
10:00 AM 75 °F - 66 °F 67% 29.92 in 6 mi SW 5.8 mph - -   Partly Cloudy
10:00 AM 75.2 °F - 66.2 °F 73% 29.95 in 6.2 mi SW 5.8 mph - N/A   Scattered Clouds
10:30 AM 75.2 °F - 66.2 °F 73% 29.95 in 6.2 mi SW 5.8 mph - N/A   Scattered Clouds
11:00 AM 77.0 °F - 66.2 °F 69% 29.95 in 6.2 mi WSW 5.8 mph - N/A   Scattered Clouds
11:30 AM 77.0 °F - 66.2 °F 69% 29.95 in 6.2 mi WSW 3.5 mph - N/A   Scattered Clouds
12:00 PM 78.8 °F - 66.2 °F 65% 29.95 in 6.2 mi WSW 4.6 mph - N/A   Mostly Cloudy
12:30 PM 80.6 °F 82.7 °F 66.2 °F 61% 29.95 in 6.2 mi West 5.8 mph - N/A   Mostly Cloudy
1:00 PM 79 °F - 68 °F 60% 29.90 in 6 mi NW 12.7 mph - -   Mostly Cloudy
1:00 PM 78.8 °F - 68.0 °F 69% 29.92 in 6.2 mi NW 12.7 mph - N/A   Mostly Cloudy
1:30 PM 77.0 °F - 68.0 °F 74% 29.92 in 6.2 mi NW 10.4 mph - N/A   Mostly Cloudy
2:00 PM 78.8 °F - 68.0 °F 69% 29.92 in 6.2 mi NNW 9.2 mph - N/A   Mostly Cloudy
2:30 PM 80.6 °F 83.2 °F 68.0 °F 65% 29.89 in 6.2 mi NW 9.2 mph - N/A   Scattered Clouds
3:00 PM 78.8 °F - 68.0 °F 69% 29.89 in 6.2 mi NW 9.2 mph - N/A   Scattered Clouds
3:30 PM 80.6 °F 83.2 °F 68.0 °F 65% 29.89 in 6.2 mi NW 10.4 mph - N/A   Scattered Clouds
4:00 PM 81 °F - 67 °F 55% 29.87 in 6 mi NNW 8.1 mph - -   Mostly Cloudy
4:00 PM 80.6 °F 83.2 °F 68.0 °F 65% 29.89 in 6.2 mi NNW 8.1 mph - N/A   Scattered Clouds
4:30 PM 80.6 °F 82.7 °F 66.2 °F 61% 29.89 in 6.2 mi NNW 10.4 mph - N/A   Scattered Clouds
5:00 PM 78.8 °F - 66.2 °F 65% 29.89 in 6.2 mi NNW 10.4 mph - N/A   Scattered Clouds
5:30 PM 78.8 °F - 66.2 °F 65% 29.92 in 6.2 mi NNW 11.5 mph - N/A   Scattered Clouds
6:00 PM 77.0 °F - 66.2 °F 69% 29.92 in 6.2 mi NNW 12.7 mph - N/A   Scattered Clouds
6:30 PM 77.0 °F - 66.2 °F 69% 29.95 in 6.2 mi NW 11.5 mph - N/A   Scattered Clouds
7:00 PM 74 °F - 66 °F 70% 29.92 in 6 mi NNW 11.5 mph - -   Partly Cloudy
7:00 PM 75.2 °F - 66.2 °F 73% 29.95 in 6.2 mi NNW 11.5 mph - N/A   Scattered Clouds
7:30 PM 73.4 °F - 66.2 °F 78% 29.95 in 6.2 mi NW 11.5 mph - N/A   Scattered Clouds
8:00 PM 71.6 °F - 66.2 °F 83% 29.95 in 6.2 mi NNW 10.4 mph - N/A   Scattered Clouds
8:30 PM 71.6 °F - 66.2 °F 83% 29.98 in 6.2 mi NNW 9.2 mph - N/A   Scattered Clouds
9:00 PM 69.8 °F - 66.2 °F 88% 29.98 in 6.2 mi North 8.1 mph - N/A   Scattered Clouds
9:30 PM 71.6 °F - 66.2 °F 83% 29.98 in 6.2 mi North 4.6 mph - N/A   Scattered Clouds
10:00 PM 70 °F - 66 °F 83% 29.99 in 6 mi NNW 4.6 mph - -   Partly Cloudy
10:00 PM 69.8 °F - 66.2 °F 88% 30.01 in 6.2 mi NNW 4.6 mph - N/A   Scattered Clouds
10:30 PM 69.8 °F - 66.2 °F 88% 30.01 in 6.2 mi NNW 3.5 mph - N/A   Scattered Clouds
11:00 PM 71.6 °F - 66.2 °F 83% 30.01 in 6.2 mi North 3.5 mph - N/A   Scattered Clouds
11:30 PM 69.8 °F - 66.2 °F 88% 30.01 in 6.2 mi North 4.6 mph - N/A   Unknown